Location: Brahman Valley
(40.6513°N, 111.8855°W)
Time: 12:14:54
(UTC+00:00)

Vanguard 1 Rocket - All Passes

Search period start: 13 May 2021 00:00
Search period end: 23 May 2021 00:00
Orbit: 652 x 4224 km, 34.3° (Epoch: 12 May)

Date Brightness Start Highest point End Pass type
(mag) Time Alt. Az. Time Alt. Az. Time Alt. Az.
13 May - 11:06:12 10° S 11:26:19 30° SE 11:42:41 10° E visible
13 May - 13:32:21 10° SW 13:56:27 55° SSE 14:11:21 10° E daylight
13 May - 16:04:54 10° WSW 16:25:56 68° S 16:36:42 10° E daylight
13 May - 18:38:45 10° W 18:52:49 48° SSW 19:00:13 10° SE daylight
13 May - 21:13:24 10° WSW 21:16:22 12° SW 21:18:53 10° SSW daylight
14 May - 09:57:04 10° S 10:12:42 20° SE 10:27:01 10° E visible
14 May - 12:18:41 10° SW 12:42:25 46° SSE 12:59:18 10° E daylight
14 May - 14:49:07 10° WSW 15:12:43 67° S 15:25:46 10° E daylight
14 May - 17:23:09 10° W 17:41:08 62° SSW 17:50:11 10° ESE daylight
14 May - 19:56:49 10° W 20:06:08 26° SW 20:11:58 10° SSE daylight
15 May - 08:56:20 10° SE 08:59:31 10° SE 09:02:41 10° ESE visible
15 May - 11:06:29 10° SSW 11:28:21 36° SE 11:46:16 10° E visible
15 May - 13:34:00 10° SW 13:58:53 61° SSE 14:14:22 10° E daylight
15 May - 16:07:09 10° W 16:28:38 69° S 16:39:41 10° ESE daylight
15 May - 18:41:19 10° W 18:55:20 43° SSW 19:02:54 10° SE daylight
16 May - 09:56:12 10° S 10:14:35 26° SE 10:31:35 10° E visible
16 May - 12:19:58 10° SW 12:44:39 53° SSE 13:02:22 10° E daylight
16 May - 14:51:13 10° WSW 15:15:19 70° S 15:28:46 10° E daylight
16 May - 17:25:32 10° W 17:43:45 58° SSW 17:53:03 10° SE daylight
16 May - 19:59:58 10° W 20:08:22 21° SW 20:13:58 10° S daylight
17 May - 08:49:19 10° SSE 09:01:19 16° SE 09:13:20 10° E visible
17 May - 11:07:18 10° SSW 11:30:22 43° SE 11:49:32 10° E visible
17 May - 13:35:52 10° WSW 14:01:20 66° SSE 14:17:21 10° E daylight
17 May - 16:09:27 10° W 16:31:17 68° S 16:42:39 10° ESE daylight
17 May - 18:43:55 10° W 18:57:42 37° SW 19:05:26 10° SSE daylight
18 May - 09:56:16 10° S 10:16:23 32° SE 10:35:23 10° E visible
18 May - 12:21:33 10° SW 12:46:53 59° SSE 13:05:20 10° E daylight
18 May - 14:53:25 10° WSW 15:17:55 71° S 15:31:43 10° E daylight
18 May - 17:27:56 10° W 17:46:15 53° SSW 17:55:49 10° SE daylight
18 May - 20:03:34 10° W 20:10:27 17° SW 20:15:28 10° SSW daylight
19 May - 08:47:32 10° S 09:03:00 21° SE 09:18:55 10° E visible
19 May - 11:08:32 10° SW 11:32:21 49° SSE 11:52:35 10° E visible
19 May - 13:37:55 10° WSW 14:03:47 70° S 14:20:16 10° E daylight
19 May - 16:11:47 10° W 16:33:51 65° SSW 16:45:31 10° ESE daylight
19 May - 18:46:39 10° W 18:59:55 31° SW 19:07:44 10° SSE daylight
20 May - 07:46:16 10° SE 07:50:16 11° ESE 07:54:22 10° ESE visible
20 May - 09:56:59 10° SSW 10:18:09 38° SE 10:38:44 10° E visible
20 May - 12:23:24 10° SW 12:49:08 64° SSE 13:08:14 10° E daylight
20 May - 14:55:42 10° W 15:20:29 71° S 15:34:37 10° ESE daylight
20 May - 17:30:22 10° W 17:48:37 47° SSW 17:58:26 10° SE daylight
20 May - 20:08:12 10° WSW 20:12:24 12° WSW 20:15:53 10° SW daylight
21 May - 08:47:13 10° S 09:04:35 27° SE 09:23:09 10° E visible
21 May - 11:10:06 10° SW 11:34:21 56° SSE 11:55:29 10° E visible
21 May - 13:40:07 10° WSW 14:06:15 72° S 14:23:10 10° E daylight
21 May - 16:14:07 10° W 16:36:19 61° SSW 16:48:18 10° SE daylight
21 May - 18:49:34 10° W 19:01:58 26° SW 19:09:44 10° S daylight
22 May - 07:40:44 10° SSE 07:51:48 16° SE 08:03:55 10° E visible
22 May - 09:58:09 10° SSW 10:19:54 45° SE 10:41:48 10° E visible
22 May - 12:25:28 10° WSW 12:51:25 69° SSE 13:11:05 10° E daylight
22 May - 14:58:01 10° W 15:22:59 70° SSW 15:37:29 10° ESE daylight
22 May - 17:32:51 10° W 17:50:48 42° SW 18:00:52 10° SSE daylight
